{"data":{"norad_id":62023,"intl_designator":"2024-213R","name":"STARLINK-32334","alt_names":[],"object_type":"PAYLOAD","status":"ACTIVE","operator":null,"country":"US","launch_date":"2024-11-18","launch_site_code":"AFWTR","launch_vehicle":null,"mission":null,"orbit_class":"UNKNOWN","rcs_meters":null,"size_class":null,"mass_kg":null,"dimensions":null,"purposes":["comms"],"wikipedia_slug":null,"has_3d_model":false,"image_url":null,"decayed_at":null,"tle_current":{"epoch":"2026-05-25T01:45:46.996704Z","epoch_age_seconds":82857,"freshness":"FRESH","line1":"1 62023U 24213R   26145.07346061  .00007929  00000+0  27953-3 0  9995","line2":"2 62023  53.1589 173.0339 0001109  73.3165 286.7957 15.30201113 84854","mean_motion":15.30201113,"eccentricity":0.0001109,"inclination_deg":53.1589,"raan_deg":173.0339,"arg_perigee_deg":73.3165,"mean_anomaly_deg":286.7957,"bstar":0.00027953,"rev_number":8485,"period_min":94.105277258415,"perigee_km":474.451709828,"apogee_km":475.97178257991,"semimajor_km":6853.348746204,"source":"CELESTRAK","updated_at":"2026-05-25T13:38:19.522030Z"}}}